Location: Alpha Ridge Park
(39.3209°N, 76.9128°W)
Time: 06:48:11
(UTC-04:00)

S-56A Canister/Altair - All Passes

Search period start: 19 May 2019 00:00
Search period end: 29 May 2019 00:00
Orbit: 633 x 2500 km, 38.9° (Epoch: 17 May)

Date Brightness Start Highest point End Pass type
(mag) Time Alt. Az. Time Alt. Az. Time Alt. Az.
19 May - 02:17:25 10° SSW 02:23:03 31° SE 02:30:58 10° E visible
19 May - 04:19:04 10° WSW 04:26:45 75° SSE 04:38:37 10° E visible
19 May - 06:22:41 10° W 06:32:21 88° S 06:46:27 10° E daylight
19 May - 08:27:03 10° WNW 08:38:34 66° SSW 08:53:24 10° SE daylight
19 May - 10:32:50 10° W 10:44:15 34° SW 10:56:50 10° SSE daylight
20 May - 01:45:31 10° S 01:50:30 25° SE 01:57:11 10° E visible
20 May - 03:46:41 10° WSW 03:53:48 70° SSE 04:04:52 10° E visible
20 May - 05:50:05 10° W 05:59:05 88° S 06:12:36 10° E daylight
20 May - 07:54:12 10° W 08:05:09 69° SSW 08:19:50 10° ESE daylight
20 May - 09:59:34 10° W 10:10:54 37° SW 10:23:56 10° SSE daylight
20 May - 12:12:52 10° WSW 12:15:29 11° SW 12:18:08 10° SW daylight
21 May - 01:13:48 10° S 01:18:01 20° SE 01:23:21 10° E visible
21 May - 03:14:22 10° WSW 03:20:58 64° SSE 03:31:09 10° E visible
21 May - 05:17:32 10° W 05:25:55 88° S 05:38:45 10° E visible
21 May - 07:21:28 10° W 07:31:47 72° SSW 07:46:11 10° ESE daylight
21 May - 09:26:25 10° W 09:37:33 40° SW 09:50:53 10° SSE daylight
21 May - 11:36:46 10° WSW 11:42:21 13° SW 11:48:07 10° SSW daylight
22 May - 00:42:21 10° SSE 00:45:34 15° SE 00:49:22 10° E visible
22 May - 02:42:06 10° SW 02:48:13 57° SSE 02:57:30 10° E visible
22 May - 04:45:01 10° W 04:52:49 88° S 05:04:55 10° E visible
22 May - 06:48:46 10° W 06:58:29 75° SSW 07:12:29 10° ESE daylight
22 May - 08:53:24 10° W 09:04:12 43° SSW 09:17:44 10° SSE daylight
22 May - 11:02:09 10° WSW 11:09:10 16° SW 11:16:40 10° SSW daylight
23 May - 00:11:39 10° SE 00:13:09 11° SE 00:14:44 10° ESE visible
23 May - 02:09:53 10° SW 02:15:32 50° SSE 02:23:56 10° E visible
23 May - 04:12:34 10° W 04:19:48 87° S 04:31:08 10° E visible
23 May - 06:16:10 10° W 06:25:15 78° SSW 06:38:44 10° ESE daylight
23 May - 08:20:29 10° W 08:30:53 46° SSW 08:44:26 10° SE daylight
23 May - 10:28:06 10° W 10:35:59 18° SW 10:44:39 10° S daylight
24 May - 01:37:43 10° SW 01:42:56 43° SSE 01:50:26 10° E visible
24 May - 03:40:10 10° W 03:46:53 85° S 03:57:25 10° E visible
24 May - 05:43:36 10° W 05:52:05 80° SSW 06:04:58 10° ESE daylight
24 May - 07:47:40 10° W 07:57:36 49° SSW 08:11:03 10° SE daylight
24 May - 09:54:25 10° W 10:02:47 21° SW 10:12:18 10° S daylight
25 May - 01:05:37 10° SSW 01:10:24 36° SE 01:17:00 10° E visible
25 May - 03:07:47 10° WSW 03:14:02 82° S 03:23:46 10° E visible
25 May - 05:11:06 10° W 05:18:59 83° S 05:31:11 10° ESE visible
25 May - 07:14:56 10° W 07:24:22 53° SSW 07:37:35 10° SE daylight
25 May - 09:21:00 10° W 09:29:34 23° SW 09:39:42 10° S daylight
26 May - 00:33:35 10° SSW 00:37:55 29° SE 00:43:36 10° E visible
26 May - 02:35:26 10° WSW 02:41:16 78° SSE 02:50:11 10° E visible
26 May - 04:38:38 10° W 04:45:58 84° S 04:57:25 10° ESE visible
26 May - 06:42:17 10° W 06:51:11 56° SSW 07:04:03 10° SE daylight
26 May - 08:47:46 10° W 08:56:23 25° SW 09:06:55 10° S daylight
27 May - 00:01:37 10° SSW 00:05:29 24° SE 00:10:14 10° E visible
27 May - 02:03:07 10° WSW 02:08:35 73° SSE 02:16:44 10° E visible
27 May - 04:06:12 10° W 04:13:02 86° S 04:23:42 10° E visible
27 May - 06:09:42 10° W 06:18:04 59° SSW 06:30:28 10° SE daylight
27 May - 08:14:42 10° W 08:23:12 28° SW 08:33:58 10° SSE daylight
27 May - 23:29:47 10° S 23:33:03 19° SE 23:36:51 10° E visible
28 May - 01:30:49 10° WSW 01:35:56 66° SSE 01:43:20 10° E visible
28 May - 03:33:49 10° W 03:40:09 87° S 03:50:03 10° E visible
28 May - 05:37:10 10° W 05:45:01 62° SSW 05:56:52 10° SE daylight
28 May - 07:41:46 10° W 07:50:04 30° SW 08:00:54 10° SSE daylight
28 May - 22:58:07 10° S 23:00:38 14° SE 23:03:22 10° ESE night (unlit)
